Jilin-1 GaoFen 03D 13 xing

operational
NORAD ID: 51846 Int'l Des: 2022-019 Owner: CGSTL Country: CN Constellation: jilin-1
LEOCIRCULARRETROGRADE

关于 Jilin-1 GaoFen 03D 13 xing

正在加载描述...

实时位置

正在加载3D地球...

即将过境

高度历史

Altitude vs Time

uPlot chart will show altitude changes over time

两行轨道根数

1 51846U 22019Y 26061.20119836 .00096840 00000-0 10020-2 0 9995
2 51846 97.3694 151.0687 0004406 188.1022 172.0166 15.64404086223062
Epoch: Mar 2, 2026 • Age: 30 hours

当前状态

高度 376.8 km
速度 7.69 km/s
星下点 34.57°N, 86.09°E
发射日期 Feb 27, 2022
运行时间 4 years
类型 earth observation

技术详情

分类 Payload
质量 43.00 kg
干质量 43.00 kg
总质量 43.00 kg
长度 1.50 m
直径 1.00 m
跨度 1.50 m
形状 Box
制造商 CGSTL
平台类型 JL-1
阶段状态 In Orbit
所有者/国家 CGSTL/CN

大型星座

Loading constellations...